Voltar ao catálogo

ESSA 6

TOS-D

AtivoMeteoSSO
NORAD 3035·PAYLOAD·🇺🇸 United States

Lançado Nov 10, 1967 de Vandenberg Space Force Base

Loading…

Próximas Passagens (próximas 24 horas)

TLE

AtualizadoSource: Space-Track

Época: Sep 14, 2026, 05:04 UTC

1 03035U 67114A   26257.21118083 -.00000029  00000-0  10833-3 0  9996
2 03035 102.0220   3.3386 0048516 313.8923  74.6095 12.54250311693773

Acompanhe ESSA 6 em tempo real com AllMySat

Download on the App Store